Location: Newark
(50.0306°N, 2.3272°E)
Time: 18:52:34
(UTC+00:00)

Courier 1B Rocket - Visible Passes

Search period start: 15 December 2019 00:00
Search period end: 25 December 2019 00:00
Orbit: 921 x 1202 km, 28.2° (Epoch: 14 December)

Date Brightness Start Highest point End Pass type
(mag) Time Alt. Az. Time Alt. Az. Time Alt. Az.
15 Dec 7.6 05:08:22 10° S 05:08:48 10° S 05:09:15 10° S visible
16 Dec 7.5 05:58:24 10° SSW 06:00:09 11° S 06:01:53 10° SSE visible
17 Dec 7.4 04:57:22 10° SSW 04:59:31 11° S 05:01:38 10° SSE visible
18 Dec 7.5 03:58:38 11° S 03:58:51 11° S 04:00:46 10° SSE visible
18 Dec 7.4 05:49:16 10° SSW 05:50:51 11° S 05:52:26 10° S visible
19 Dec 7.4 04:47:48 10° SSW 04:50:13 12° S 04:52:43 10° SSE visible
20 Dec 7.4 03:50:35 12° S 03:50:35 12° S 03:52:19 10° SSE visible
21 Dec 7.3 04:39:42 11° SSW 04:40:53 12° S 04:43:15 10° S visible
22 Dec 7.5 03:42:27 11° SSE 03:42:27 11° SSE 03:43:13 10° SSE visible
23 Dec 7.4 04:31:33 11° SSW 04:31:33 11° SSW 04:32:55 10° S visible
